Location: High Halden
(51.0833°N, 0.7167°E)
Time: 01:39:58
(UTC+00:00)

Daily predictions for brighter satellites

Satellite Brightness Start Highest point End
(mag) Time Altitude Azimuth Time Altitude Azimuth Time Altitude Azimuth
Cosmos 2263 Rocket 4.5 03:01:27 20° E 03:01:27 20° E 03:04:16 10° NE
ATLAS 3B R/B 3.5 03:30:34 46° NE 03:30:34 46° NE 03:36:54 10° ESE
ALOS 4.1 03:49:12 10° NNE 03:53:16 29° E 03:53:16 29° E
Cosmos 2227 Rocket 4.2 03:57:13 18° NNE 03:57:13 18° NNE 03:58:50 10° NNE
Cosmos 2344 4.4 03:53:01 44° NNW 03:56:19 65° NE 04:08:17 10° ESE
NOSS 3-2 (C) 4.4 04:00:07 53° S 04:00:07 53° S 04:06:40 10° SSE
CENTAUR R/B 3.3 04:01:35 58° SSW 04:01:35 58° SSW 04:08:58 10° SSE
NOSS 3-4 (A) 4.3 04:00:50 40° SSE 04:01:51 43° ESE 04:07:46 10° NE
NOSS 3-4 (C) 4.3 04:00:54 39° SSE 04:01:59 43° ESE 04:07:53 10° NE
SL-4 R/B 4.3 04:15:02 22° E 04:15:02 22° E 04:16:29 10° ENE
Cosmos 1680 Rocket 4.0 04:20:02 56° NE 04:20:25 57° ENE 04:25:40 10° SE
ATLAS 2AS CENTAUR R/B 3.6 04:15:31 18° SSW 04:21:28 53° ESE 04:29:01 10° NE
Cosmos 2297 Rocket 4.1 04:30:31 18° N 04:30:31 18° N 04:32:30 10° NNE
ATLAS 5 CENTAUR R/B 3.7 04:31:18 25° NE 04:31:18 25° NE 04:32:24 10° NE
ATLAS CENTAUR R/B 2.8 04:32:06 33° E 04:32:06 33° E 04:34:34 10° ESE
Lacrosse 5 2.9 04:32:03 37° SSE 04:33:04 41° SE 04:37:49 10° ENE
ADEOS 4.1 04:28:09 10° NNE 04:33:20 58° ESE 04:38:29 10° S
Cosmos 2112 Rocket 4.2 04:38:53 49° N 04:40:14 70° ENE 04:45:34 10° SSE
Gbstr 26 Del rocket 4.2 04:43:33 31° SE 04:43:33 31° SE 04:45:45 10° SE
Cosmos 1745 Rocket 4.4 04:44:18 45° NNW 04:44:18 45° NNW 04:49:08 10° N
Cosmos 2263 Rocket 2.0 04:43:11 76° W 04:43:23 77° WNW 04:49:08 10° NNE
SJ 16-02 1.5 04:45:52 70° ESE 04:45:57 70° ESE 04:50:22 10° NNE
Meteor 1-26 Rocket 4.1 04:48:59 32° NNW 04:51:51 81° W 04:57:28 10° S
Cosmos 1766 Rocket 3.8 04:58:04 58° N 04:58:04 58° N 05:01:44 10° N
FENGYUN 3A 3.5 04:52:49 10° NNE 04:58:16 81° WNW 05:03:40 10° SSW
Cosmos 2082 Rocket 4.3 04:57:54 10° N 05:01:47 19° NNE 05:05:48 10° ENE
Cosmos 2181 Rocket 3.8 04:56:47 10° NNW 05:02:59 71° W 05:09:05 10° S
Cosmos 1408 Rocket 3.8 04:58:48 10° S 05:03:14 69° E 05:07:40 10° NNE
USA 307 3.1 05:05:08 57° N 05:05:14 57° N 05:09:30 10° E
Okean 3 Rocket 4.4 05:07:16 36° N 05:07:16 36° N 05:10:00 10° N
COSMO-SKYMED 1 2.4 05:02:35 10° SSE 05:06:56 84° WSW 05:07:59 52° NNW
Cosmos 1709 Rocket 4.0 05:01:46 10° SSW 05:08:03 61° WNW 05:14:24 10° N
USA 308 3.1 05:11:14 55° NNW 05:11:36 58° N 05:15:52 10° E
Lacrosse 4 Rocket 3.3 05:14:32 19° SSW 05:14:32 19° SSW 05:16:09 10° S
Cosmos 1833 Rocket 4.3 05:08:13 12° NNW 05:12:37 29° NE 05:17:28 10° ESE
Meteor 2-3 Rocket 3.6 05:09:33 10° SSW 05:15:17 72° WNW 05:21:06 10° N
CZ-4C R/B 2.6 05:11:05 11° SSW 05:15:55 61° SE 05:21:54 10° NE
CZ-4B R/B 3.4 05:12:22 10° NNE 05:16:54 68° ESE 05:21:17 10° S
MOS 1 Rocket 4.0 05:12:38 10° SSE 05:17:24 58° ENE 05:22:29 10° N
FALCON 9 DEB 4.1 05:18:33 35° S 05:19:03 38° SSE 05:22:05 10° E
Cosmos 1689 Rocket 3.9 05:17:01 10° S 05:18:12 22° S 05:18:12 22° S
ATLAS 3B R/B 2.7 05:17:51 33° WNW 05:21:08 64° SW 05:28:12 10° SSE
COSMOS 2406 4.5 05:18:03 12° NNW 05:22:54 38° NE 05:28:14 10° ESE
SAR-Lupe-4 4.4 05:20:16 10° S 05:22:38 35° SSW 05:22:38 35° SSW
Cosmos 1862 4.1 05:24:02 10° S 05:28:00 54° E 05:31:58 10° NNE
Genesis I 4.0 05:24:58 10° SSW 05:28:40 51° SE 05:32:25 10° NE
deb Chang Zheng 4 3.5 05:26:25 10° N 05:30:43 61° WNW 05:35:01 10° SSW
ALOS 2.6 05:26:27 10° N 05:30:51 41° WNW 05:31:45 37° W
Cosmos 990 Rocket 3.9 05:30:55 10° SSW 05:36:11 83° WNW 05:41:29 10° NNE
Cosmos 2074 Rocket 3.9 05:31:45 10° S 05:37:58 84° W 05:44:14 10° N
METEOR-M 4.3 05:33:08 10° N 05:38:18 50° WNW 05:43:26 10° SW
Cosmos 2227 Rocket 4.0 05:39:03 14° NNW 05:39:18 14° NNW 05:42:09 10° N
USA 305 3.1 05:38:55 36° WNW 05:40:29 62° N 05:44:46 10° E
Meteor 1-31 Rocket 3.1 05:36:53 10° N 05:40:29 39° WNW 05:40:29 39° WNW
Cosmos 405 Rocket 2.9 05:40:05 10° S 05:43:45 68° E 05:47:30 10° NNE
Cosmos 1812 2.6 05:42:51 15° NNW 05:45:57 74° W 05:49:47 10° S
EO 1 Delta rocket 3.8 05:43:15 10° S 05:48:12 70° W 05:52:48 10° NNW
Cosmos 2228 Rocket 2.9 05:44:01 10° NNW 05:48:28 75° W 05:52:50 10° S
Cosmos 1515 Rocket 4.0 05:46:48 24° NW 05:48:54 38° W 05:53:02 10° SSW
USA 306 3.0 05:47:01 31° WNW 05:48:56 65° N 05:53:13 10° E
CENTAUR R/B 4.3 05:48:50 19° W 05:49:57 19° WSW 05:55:37 10° SSW
Cosmos 1782 3.8 05:52:15 26° W 05:52:15 26° W 05:55:12 10° SSW
SL-4 R/B 1.7 05:50:37 32° W 05:52:18 82° N 05:55:59 10° E
NOSS 3-4 (A) 3.6 05:48:19 19° WSW 05:52:37 55° NW 05:59:03 10° NE
NOSS 3-4 (C) 3.6 05:48:24 19° WSW 05:52:45 55° NW 05:59:11 10° NE
PSLV R/B 4.4 05:49:50 10° SSW 05:53:43 38° W 05:55:47 22° NW
DMSP B5D1-3 4.5 05:49:48 10° S 05:54:57 75° WSW 06:00:09 10° NNW
SKYMED 2 4.4 05:51:24 10° SSW 05:55:13 30° W 05:56:36 25° WNW
Cosmos 2184 Rocket 4.0 05:49:14 10° SSW 05:55:32 68° WNW 06:01:55 10° N
SJ-12 4.3 05:53:56 10° N 05:57:44 39° WNW 06:01:30 10° SW
FALCON 9 DEB 3.1 05:56:58 23° WSW 05:58:47 73° SSE 06:02:00 10° ENE
FALCON 9 DEB 3.2 05:59:52 29° WNW 06:01:29 72° NNE 06:04:56 10° E
Cosmos 1844 Rocket 2.6 05:56:05 10° SSW 06:01:46 82° WNW 06:07:29 10° NNE
Cosmos 1707 Rocket 3.9 06:01:08 10° N 06:05:29 67° ENE 06:09:47 10° SSE
EXPRESS MD2 4.1 06:03:37 22° W 06:06:03 60° SSW 06:13:12 10° ESE
Meteor PRIRODA 4.1 06:05:40 10° N 06:09:09 38° WNW 06:12:38 10° SW
ATLAS CENTAUR R/B 2.4 06:08:18 21° W 06:09:31 25° WSW 06:12:44 10° S
COSMOS 2455 3.5 06:03:59 10° SSW 06:09:53 60° ESE 06:15:50 10° NE
RESURS DK-1 2.5 06:06:01 10° SW 06:10:06 54° NW 06:14:12 10° NNE
NOAA 6 4.2 06:05:44 10° NNE 06:10:53 79° ESE 06:16:00 10° SSW
ERBS 3.4 06:11:05 21° NW 06:12:28 29° N 06:15:26 10° ENE
ADEOS 4.5 06:08:14 10° N 06:12:32 27° WNW 06:16:50 10° WSW
ATLAS 2AS CENTAUR R/B 3.1 06:04:43 10° WSW 06:12:35 59° NW 06:20:14 10° NE
EP 3 3.2 06:11:51 25° SW 06:12:47 83° NW 06:14:42 10° NE
H-2A R/B 2.8 06:09:41 10° N 06:13:32 54° WNW 06:17:19 10° SSW
Cosmos 2297 Rocket 4.2 06:13:08 10° NNW 06:14:19 11° NNW 06:15:32 10° N
Cosmos 1500 Rocket 3.8 06:10:58 10° SSW 06:15:06 45° WNW 06:19:18 10° N
Cosmos 1844 3.6 06:10:06 10° SSW 06:15:40 80° WNW 06:21:18 10° NNE
Lacrosse 5 1.9 06:11:17 12° WSW 06:15:55 66° NNW 06:20:59 10° ENE
CZ-4B DEB 4.2 06:10:33 10° NNE 06:16:03 87° ESE 06:21:32 10° SSW
Cosmos 1437 Rocket 2.8 06:12:22 10° NNW 06:16:06 54° W 06:19:46 10° S
Cosmos 372 Rocket 4.1 06:14:10 10° SSW 06:19:15 79° ESE 06:24:23 10° NNE
Okean O Rocket 2.4 06:15:13 10° NNE 06:19:37 56° ESE 06:23:59 10° S
Uosat 12 SS-18 rocket 4.5 06:16:46 13° NW 06:20:59 86° SW 06:26:43 10° SE
Cosmos 1242 Rocket 3.9 06:17:35 10° N 06:21:04 41° ENE 06:24:32 10° SE
PAYLOAD B 4.3 06:16:55 10° NNE 06:22:29 82° ESE 06:27:59 10° SSW
Geosat 4.1 06:18:13 10° SE 06:23:14 78° ENE 06:28:18 10° NNW
SMAP 3.4 06:18:39 10° NNE 06:23:20 70° ESE 06:27:58 10° S
SJ 16-02 2.7 06:22:57 15° W 06:25:01 19° NW 06:28:16 10° N
USA 81 4.3 06:20:20 10° S 06:25:35 76° E 06:30:53 10° N
Cosmos 2263 Rocket 3.4 06:24:56 13° WNW 06:28:17 22° NW 06:32:38 10° NNE
FALCON 9 DEB 2.9 06:28:58 10° WSW 06:32:07 83° NNW 06:35:22 10° ENE
ATLAS 5 CENTAUR R/B 3.4 06:28:28 10° S 06:32:11 34° ESE 06:36:19 10° ENE
FALCON 9 DEB 2.9 06:29:05 11° WSW 06:32:11 81° NNW 06:35:26 10° ENE
Nadezhda 3 Rocket 4.4 06:27:39 10° NNW 06:33:34 44° W 06:39:23 10° SSW
Sich 1 3.0 06:31:20 10° SSW 06:35:46 69° WNW 06:40:12 10° N
Cosmos 1898 Rocket 4.1 06:30:51 10° WSW 06:35:46 37° NW 06:40:44 10° NNE
CZ-2C R/B 2.7 06:31:33 10° S 06:37:02 75° WSW 06:42:25 10° NNW
AQUARIUS 4.3 06:32:33 10° NNE 06:37:05 83° ESE 06:41:35 10° SSW
H-2A R/B 2.3 06:33:46 10° N 06:37:35 57° WNW 06:41:20 10° SSW
Envisat 3.0 06:32:39 10° N 06:37:40 59° WNW 06:42:39 10° SSW
Cosmos 1743 Rocket 4.4 06:35:24 10° SW 06:39:17 28° WNW 06:43:12 10° N
CORIOLIS 4.4 06:36:59 10° NNE 06:42:29 79° ESE 06:47:55 10° SSW
COSMO-SKYMED 1 4.5 06:42:33 10° WSW 06:43:48 11° W 06:45:03 10° WNW
USA 307 3.0 06:41:18 11° WNW 06:45:31 88° SSW 06:49:50 10° ESE
Cosmos 2082 Rocket 2.6 06:41:20 10° NNW 06:47:02 65° NE 06:52:42 10° SE
CZ-4B R/B 3.2 06:42:00 10° NNE 06:47:22 87° WNW 06:52:48 10° SSW
CZ-4 R/B 3.8 06:46:14 10° NE 06:49:53 28° E 06:53:32 10° SSE
CZ-4B R/B 4.5 06:48:18 10° NNW 06:51:29 19° WNW 06:54:38 10° WSW
Cosmos 1862 Rocket 3.6 06:47:07 10° NNW 06:51:37 82° W 06:56:02 10° S
USA 308 3.0 06:47:31 10° WNW 06:51:52 83° SSW 06:56:10 10° ESE
Cosmos 1937 Rocket 4.1 06:48:00 10° WSW 06:52:44 35° NW 06:57:31 10° NNE
Cosmos 1939 Rocket 3.7 06:48:51 10° NNE 06:52:53 59° E 06:56:57 10° S
FALCON 9 DEB 2.9 06:51:48 10° W 06:55:01 70° N 06:58:15 10° ENE
NOSS 7 (E) 4.5 06:52:10 10° WSW 06:55:31 48° NW 06:58:29 10° NE
Cosmos 1833 Rocket 2.7 06:51:27 10° NNW 06:57:04 70° WSW 07:02:38 10° SSE
Cosmos 1269 Rocket 4.4 06:52:09 10° NNW 06:57:27 66° ENE 07:02:41 10° SE
Aureole 2 Rocket 3.0 06:55:38 10° WSW 06:57:38 20° NW 06:59:40 10° N
Cosmos 1805 Rocket 4.2 06:54:19 10° SW 06:58:22 34° WNW 07:02:28 10° N
Meteor 1-27 Rocket 4.4 06:55:15 10° NNW 07:00:27 36° W 07:05:43 10° SSW
